DW7738 Weather Reports


Display with metric or nautical units.
time (UTC)temp
F
wind
direction
speed
MPH
gust
MPH
rain 1hr
in
rain 24hr
in
rain mn
in
humidity
%
barometer
mb
20260504035558 43 0 0.0 0.0 0.00 0.00 0.00 81 1014.0
20260504035101 43 0 0.0 0.0 0.00 0.00 0.00 82 1014.0
20260504034634 43 0 0.0 0.0 0.00 0.00 0.00 79 1013.9
20260504034103 43 0 0.0 0.0 0.00 0.00 0.00 79 1014.0
20260504033600 44 0 0.0 0.0 0.00 0.00 0.00 78 1013.9
20260504033104 44 0 0.0 0.0 0.00 0.00 0.00 77 1013.9
20260504032600 44 0 0.0 0.0 0.00 0.00 0.00 76 1013.9
20260504032100 44 0 0.0 0.0 0.00 0.00 0.00 76 1013.9
20260504031600 44 0 0.0 0.0 0.00 0.00 0.00 76 1013.9
20260504031101 45 0 0.0 0.0 0.00 0.00 0.00 75 1013.9
20260504030559 45 0 0.0 0.0 0.00 0.00 0.00 76 1014.0
20260504030124 45 0 0.0 0.0 0.00 0.00 0.00 76 1013.9
20260504025600 45 0 0.0 0.0 0.00 0.00 0.00 76 1013.8
20260504025102 46 0 0.0 0.0 0.00 0.00 0.00 77 1013.9
20260504024602 46 0 0.0 0.0 0.00 0.00 0.00 77 1013.9
20260504024101 45 0 0.0 0.0 0.00 0.00 0.00 76 1013.9
20260504023601 46 0 0.0 0.0 0.00 0.00 0.00 73 1014.0
20260504023103 46 0 0.0 0.0 0.00 0.00 0.00 72 1013.9
20260504022601 46 0 0.0 0.0 0.00 0.00 0.00 72 1013.9
20260504022059 47 0 0.0 0.0 0.00 0.00 0.00 72 1013.9
20260504021558 47 0 0.0 0.0 0.00 0.00 0.00 69 1013.9
20260504021102 47 0 0.0 0.0 0.00 0.00 0.00 67 1013.9
20260504020557 47 0 0.0 0.0 0.00 0.00 0.00 67 1014.0
20260504020108 48 0 0.0 0.0 0.00 0.00 0.00 64 1014.0
20260504015601 48 0 0.0 0.0 0.00 0.00 0.00 65 1013.9
20260504015100 48 0 0.0 0.0 0.00 0.00 0.00 66 1013.9
20260504014607 48 0 0.0 0.0 0.00 0.00 0.00 66 1013.9
20260504014101 48 0 0.0 0.0 0.00 0.00 0.00 63 1013.8
20260504013559 48 0 0.0 0.0 0.00 0.00 0.00 61 1013.8
20260504013058 49 0 0.0 0.0 0.00 0.00 0.00 62 1013.8
20260504012556 49 0 0.0 0.0 0.00 0.00 0.00 62 1013.8
20260504012056 49 0 0.0 0.0 0.00 0.00 0.00 63 1013.7
20260504011559 49 0 0.0 0.0 0.00 0.00 0.00 62 1013.6
20260504011058 49 0 0.0 0.0 0.00 0.00 0.00 62 1013.6
20260504010558 50 0 0.0 0.0 0.00 0.00 0.00 61 1013.5
20260504010058 50 0 0.0 0.0 0.00 0.00 0.00 58 1013.5
20260504005559 50 0 0.0 0.0 0.00 0.00 0.00 56 1013.4
20260504005105 51 0 0.0 0.0 0.00 0.00 0.00 54 1013.3
20260504004558 51 0 0.0 2.0 0.00 0.00 0.00 56 1013.3
20260504004100 51 0 0.0 2.0 0.00 0.00 0.00 55 1013.3
20260504003601 52 0 0.0 2.0 0.00 0.00 0.00 54 1013.2
20260504003100 52 253 0.0 2.0 0.00 0.00 0.00 54 1013.0
20260504002559 53 253 0.0 2.0 0.00 0.00 0.00 50 1012.9
20260504002059 53 253 0.0 2.0 0.00 0.00 0.00 53 1012.7
20260504001607 54 0 0.0 2.0 0.00 0.00 0.00 50 1012.7
20260504001059 54 253 0.0 2.0 0.00 0.00 0.00 51 1012.6
20260504000559 55 0 0.0 2.0 0.00 0.00 0.00 49 1012.5
20260504000059 55 253 0.0 2.0 0.00 0.00 0.00 46 1012.6
20260503235559 56 253 0.0 2.0 0.00 0.00 0.00 47 1012.6
20260503235059 56 253 0.0 2.0 0.00 0.00 0.00 46 1012.5
20260503234558 57 253 1.0 2.0 0.00 0.00 0.00 42 1012.4
20260503234059 57 255 1.0 3.0 0.00 0.00 0.00 42 1012.4
20260503233559 58 254 1.0 3.0 0.00 0.00 0.00 42 1012.3
20260503233102 58 280 1.0 2.0 0.00 0.00 0.00 39 1012.3
20260503232600 59 282 1.0 4.0 0.00 0.00 0.00 38 1012.3
20260503232059 59 229 1.0 4.0 0.00 0.00 0.00 37 1012.3
20260503231558 59 266 1.0 4.0 0.00 0.00 0.00 37 1012.2
20260503231059 60 262 1.0 9.0 0.00 0.00 0.00 36 1012.3
20260503230600 60 257 4.0 9.0 0.00 0.00 0.00 35 1012.3
20260503225559 60 309 1.0 6.0 0.00 0.00 0.00 35 1012.2
20260503225102 60 344 2.0 5.0 0.00 0.00 0.00 35 1012.1
20260503224558 60 323 2.0 7.0 0.00 0.00 0.00 37 1012.1
20260503224100 60 38 2.0 16.0 0.00 0.00 0.00 36 1012.1
20260503223559 60 344 5.0 16.0 0.00 0.00 0.00 35 1012.1
20260503223057 60 320 4.0 11.0 0.00 0.00 0.00 35 1012.2
20260503222558 60 312 3.0 8.0 0.00 0.00 0.00 35 1012.2
20260503222100 60 275 2.0 8.0 0.00 0.00 0.00 36 1012.1
20260503221602 59 339 4.0 14.0 0.00 0.00 0.00 34 1012.2
20260503221101 59 334 5.0 12.0 0.00 0.00 0.00 34 1012.2
20260503220600 60 336 4.0 14.0 0.00 0.00 0.00 33 1012.1
20260503220059 60 9 5.0 15.0 0.00 0.00 0.00 33 1012.1
20260503215600 60 335 6.0 18.0 0.00 0.00 0.00 32 1012.1
20260503215059 60 311 7.0 18.0 0.00 0.00 0.00 33 1012.2
20260503214604 60 336 6.0 16.0 0.00 0.00 0.00 33 1012.3
20260503214059 60 318 8.0 16.0 0.00 0.00 0.00 34 1012.2
20260503213559 60 340 8.0 15.0 0.00 0.00 0.00 34 1012.0
20260503213058 60 300 2.0 13.0 0.00 0.00 0.00 34 1012.1
20260503212601 60 298 4.0 13.0 0.00 0.00 0.00 34 1012.1
20260503212100 61 323 6.0 13.0 0.00 0.00 0.00 32 1012.1
20260503211602 60 308 5.0 12.0 0.00 0.00 0.00 32 1012.0
20260503211102 60 268 5.0 18.0 0.00 0.00 0.00 32 1012.0
20260503210600 60 316 8.0 18.0 0.00 0.00 0.00 32 1012.2
20260503210057 60 268 5.0 14.0 0.00 0.00 0.00 33 1012.1
20260503205600 60 347 4.0 14.0 0.00 0.00 0.00 33 1012.1
20260503205100 60 346 8.0 14.0 0.00 0.00 0.00 32 1012.1
20260503204602 60 291 3.0 13.0 0.00 0.00 0.00 34 1012.3
20260503204059 59 252 6.0 17.0 0.00 0.00 0.00 33 1012.2
20260503203559 59 209 6.0 17.0 0.00 0.00 0.00 33 1012.3
20260503203103 59 302 4.0 14.0 0.00 0.00 0.00 34 1012.3
20260503202559 59 269 6.0 14.0 0.00 0.00 0.00 35 1012.3
20260503202101 59 318 4.0 13.0 0.00 0.00 0.00 38 1012.4
20260503201601 60 234 2.0 13.0 0.00 0.00 0.00 35 1012.4
20260503201059 59 343 6.0 15.0 0.00 0.00 0.00 35 1012.6
20260503200559 59 321 7.0 15.0 0.00 0.00 0.00 33 1012.6
20260503200100 59 306 6.0 14.0 0.00 0.00 0.00 35 1012.7
20260503195558 59 38 2.0 11.0 0.00 0.00 0.00 37 1012.7
20260503195059 58 12 4.0 18.0 0.00 0.00 0.00 37 1012.8
20260503194601 58 246 4.0 18.0 0.00 0.00 0.00 35 1012.8
20260503194101 59 278 7.0 18.0 0.00 0.00 0.00 35 1012.9
20260503193559 58 347 6.0 12.0 0.00 0.00 0.00 38 1012.9
20260503193112 58 297 4.0 18.0 0.00 0.00 0.00 34 1012.9
20260503192559 58 81 3.0 18.0 0.00 0.00 0.00 35 1012.9
20260503192059 58 323 7.0 18.0 0.00 0.00 0.00 35 1013.1
20260503191600 58 321 6.0 17.0 0.00 0.00 0.00 35 1013.0
20260503191101 58 69 7.0 17.0 0.00 0.00 0.00 35 1013.1
20260503190559 58 329 6.0 16.0 0.00 0.00 0.00 35 1013.1
20260503190107 58 352 7.0 20.0 0.00 0.00 0.00 35 1013.0
20260503185559 58 319 9.0 20.0 0.00 0.00 0.00 36 1013.2
20260503185100 58 261 4.0 14.0 0.00 0.00 0.00 37 1013.2
20260503184602 57 317 5.0 14.0 0.00 0.00 0.00 37 1013.1
20260503184059 57 291 5.0 14.0 0.00 0.00 0.00 37 1013.2
20260503183559 57 59 6.0 16.0 0.00 0.00 0.00 36 1013.3
20260503183110 56 311 10.0 20.0 0.00 0.00 0.00 38 1013.3
20260503182557 56 288 9.0 23.0 0.00 0.00 0.00 38 1013.3
20260503182059 56 26 13.0 23.0 0.00 0.00 0.00 35 1013.5
20260503181559 56 308 9.0 19.0 0.00 0.00 0.00 37 1013.5
20260503181101 55 281 5.0 13.0 0.00 0.00 0.00 38 1013.5
20260503180600 55 271 4.0 16.0 0.00 0.00 0.00 39 1013.6
20260503180100 55 344 5.0 18.0 0.00 0.00 0.00 37 1013.5
20260503175559 55 292 5.0 18.0 0.00 0.00 0.00 38 1013.5
20260503175100 55 292 5.0 18.0 0.00 0.00 0.00 39 1013.4
20260503174559 55 339 9.0 17.0 0.00 0.00 0.00 37 1013.6
20260503174102 55 277 5.0 14.0 0.00 0.00 0.00 40 1013.6
20260503173559 55 315 5.0 14.0 0.00 0.00 0.00 38 1013.6
20260503173114 55 302 7.0 13.0 0.00 0.00 0.00 39 1013.8
20260503172559 54 12 7.0 18.0 0.00 0.00 0.00 40 1013.6
20260503172101 54 247 7.0 18.0 0.00 0.00 0.00 40 1013.7
20260503171601 54 315 6.0 14.0 0.00 0.00 0.00 41 1013.6
20260503171100 53 236 5.0 14.0 0.00 0.00 0.00 44 1013.9
20260503170601 53 315 9.0 15.0 0.00 0.00 0.00 43 1013.8
20260503160104 50 27 9.0 17.0 0.00 0.00 0.00 49 1014.5
20260503150602 49 348 5.0 13.0 0.00 0.00 0.00 52 1014.8
20260503150113 49 286 5.0 10.0 0.00 0.00 0.00 52 1014.9
20260503140119 49 268 7.0 13.0 0.00 0.00 0.00 54 1014.7
20260503131059 47 305 5.0 14.0 0.00 0.00 0.00 61 1014.7
20260503130559 47 314 6.0 14.0 0.00 0.00 0.00 59 1014.7
20260503130109 47 271 2.0 10.0 0.00 0.00 0.00 59 1014.6
20260503110601 44 319 2.0 8.0 0.00 0.00 0.00 64 1014.2
20260503110118 44 300 2.0 9.0 0.00 0.00 0.00 65 1014.1
20260503100109 44 321 2.0 5.0 0.00 0.00 0.00 64 1013.0
20260503090108 45 297 4.0 8.0 0.00 0.00 0.00 62 1012.6
20260503081615 46 331 2.0 9.0 0.00 0.01 0.00 59 1012.3
20260503081059 46 259 2.0 9.0 0.00 0.01 0.00 58 1012.2
20260503080600 46 311 3.0 9.0 0.00 0.01 0.00 59 1012.2
20260503080104 46 296 3.0 8.0 0.00 0.01 0.00 60 1012.2
20260503072600 47 299 3.0 8.0 0.00 0.02 0.00 59 1012.1
20260503072103 47 345 2.0 8.0 0.00 0.02 0.00 59 1012.0
20260503071610 47 273 3.0 8.0 0.00 0.02 0.00 59 1012.0
20260503071058 47 304 3.0 5.0 0.00 0.02 0.00 59 1012.0
20260503070559 47 300 2.0 6.0 0.00 0.02 0.00 61 1012.0
20260503070103 47 321 1.0 8.0 0.00 0.02 0.00 62 1012.0
20260503060111 45 0 0.0 0.0 0.00 0.02 0.00 75 1012.3
20260503055059 45 0 0.0 1.0 0.00 0.02 0.00 73 1012.4
20260503054600 46 0 0.0 1.0 0.00 0.02 0.00 74 1012.4
20260503054059 46 0 0.0 1.0 0.00 0.02 0.00 72 1012.4
20260503053600 46 0 0.0 0.0 0.00 0.02 0.00 75 1012.5
20260503053058 46 0 0.0 0.0 0.00 0.02 0.00 69 1012.4
20260503052559 47 0 0.0 0.0 0.00 0.02 0.00 68 1012.5
20260503052101 47 0 0.0 0.0 0.00 0.02 0.00 67 1012.6
20260503051601 47 0 0.0 0.0 0.00 0.02 0.00 68 1012.7
20260503051059 47 0 0.0 0.0 0.00 0.02 0.00 71 1012.7
20260503050601 47 0 0.0 1.0 0.00 0.02 0.00 71 1012.8
20260503050100 47 0 0.0 2.0 0.00 0.02 0.00 66 1012.8
20260503045559 47 0 0.0 2.0 0.00 0.02 0.00 70 1012.8
20260503045100 47 0 1.0 2.0 0.00 0.02 0.00 68 1012.8
20260503044558 47 309 0.0 3.0 0.00 0.02 0.00 66 1012.8
20260503044103 47 0 0.0 3.0 0.00 0.02 0.00 72 1012.9
20260503043557 47 0 0.0 3.0 0.00 0.02 0.00 70 1012.8
20260503043101 46 312 0.0 2.0 0.00 0.02 0.00 72 1012.9
20260503042558 46 42 1.0 2.0 0.00 0.02 0.00 73 1012.9
20260503042100 46 0 0.0 2.0 0.00 0.02 0.00 77 1012.9
20260503041600 45 0 0.0 2.0 0.00 0.02 0.00 75 1013.0
20260503041100 45 0 0.0 0.0 0.00 0.02 0.00 79 1013.0
20260503040559 45 0 0.0 0.0 0.00 0.02 0.00 80 1013.1
20260503040059 45 0 0.0 0.0 0.00 0.02 0.00 75 1013.1